Home   Weather   Peristeri   Past weeks

Flag for Greece Past Weather in Peristeri, Greece — Yesterday and Last 2 Weeks

Now
77 °F

Sunny.


Feels Like: 78 °F
Forecast: 57 / 79 °F
Wind: 9 mph from South

Location: Elefsis Airport

Current Time: Apr 29, 2017 at 4:49:06 pm

Latest Report: Apr 29, 2017 at 4:20 pm


Visibility: 10 mi

Pressure: 29.86 "Hg

Humidity: 28%

Dew Point: 41 °F

Location of PeristeriLocation

Past Weather in Peristeri — Graph

°F

Peristeri Temperature Yesterday

Maximum temperature yesterday: 79 °F (at 2:50 pm)
Minimum temperature yesterday: 52 °F (at 5:50 am)
Average temperature yesterday: 66 °F

High & Low Weather Summary for the Past Weeks

 TemperatureHumidityPressure
High81 °F (Apr 29, 2:20 pm)94% (Apr 18, 12:50 am)30.21 "Hg (Apr 18, 12:50 am)
Low43 °F (Apr 23, 3:50 am)20% (Apr 20, 5:20 pm)29.74 "Hg (Apr 17, 3:50 pm)
Average61 °F53%29.99 "Hg
* Reported Apr 14 3:20 pm — Apr 29 3:20 pm, Peristeri, Weather by CustomWeather, © 2017

Note: Actual official high and low records may vary slightly from our data, if they occured in-between our weather recording intervals... More about our weather records

Advertising

Peristeri Weather History for the Previous 24 Hours

Scroll right to see more
 ConditionsComfort  
Time TempWeatherWind HumidityBarometerVisibility
3:20 pm
Sat, Apr 29
79 °FSunny.8 mph28%29.86 "Hg10 mi
2:50 pm77 °FSunny.12 mph32%29.86 "Hg10 mi
2:20 pm81 °FSunny.8 mph24%29.89 "Hg10 mi
1:50 pm79 °FSunny.7 mph26%29.89 "Hg10 mi
1:20 pm79 °FSunny.7 mph30%29.89 "Hg10 mi
12:50 pm79 °FSunny.No wind30%29.89 "Hg10 mi
12:20 pm77 °FSunny.No wind28%29.89 "Hg10 mi
11:50 am77 °FSunny.No wind26%29.92 "Hg10 mi
11:20 am77 °FSunny.No wind24%29.92 "Hg10 mi
10:20 am73 °FSunny.No wind27%29.92 "Hg10 mi
9:50 am73 °FSunny.No wind25%29.92 "Hg10 mi
9:20 am70 °FSunny.No wind31%29.92 "Hg10 mi
8:50 am68 °FSunny.No wind30%29.92 "Hg10 mi
8:20 am64 °FSunny.No wind37%29.92 "Hg10 mi
7:50 am57 °FSunny.No wind48%29.92 "Hg10 mi
7:20 am55 °FSunny.No wind51%29.92 "Hg10 mi
6:50 am54 °FSunny.5 mph51%29.92 "Hg10 mi
6:20 am54 °FClear.No wind51%29.92 "Hg10 mi
5:50 am54 °FClear.No wind51%29.92 "Hg10 mi
5:20 am52 °FClear.No wind58%29.92 "Hg10 mi
4:50 am54 °FClear.5 mph54%29.92 "Hg10 mi
4:20 am55 °FClear.5 mph47%29.95 "Hg10 mi
3:50 am55 °FClear.5 mph47%29.95 "Hg10 mi
3:20 am55 °FClear.5 mph47%29.95 "Hg10 mi
2:50 am55 °FClear.5 mph47%29.95 "Hg10 mi
2:20 am57 °FClear.6 mph44%29.95 "Hg10 mi
1:50 am57 °FClear.6 mph44%29.95 "Hg10 mi
1:20 am59 °FClear.5 mph42%29.98 "Hg10 mi
12:50 am59 °FClear.5 mph42%29.98 "Hg10 mi
12:20 am59 °FClear.5 mph42%29.98 "Hg10 mi
11:50 pm
Fri, Apr 28
59 °FClear.5 mph42%29.98 "Hg10 mi
11:20 pm61 °FClear.5 mph36%29.98 "Hg10 mi
10:50 pm63 °FClear.6 mph34%29.98 "Hg10 mi
10:20 pm61 °FClear.No wind36%29.98 "Hg10 mi
9:50 pm63 °FClear.No wind34%29.98 "Hg10 mi
8:50 pm66 °FClear.5 mph32%29.95 "Hg10 mi
8:20 pm66 °FClear.5 mph32%29.95 "Hg10 mi
7:50 pm70 °FSunny.5 mph31%29.95 "Hg10 mi
7:20 pm72 °FSunny.5 mph27%29.95 "Hg10 mi
6:50 pm73 °FSunny.6 mph25%29.95 "Hg10 mi
6:20 pm75 °FSunny.5 mph24%29.95 "Hg10 mi
5:50 pm75 °FSunny.7 mph22%29.95 "Hg10 mi
5:20 pm77 °FSunny.6 mph21%29.95 "Hg10 mi
4:50 pm77 °FSunny.8 mph22%29.95 "Hg10 mi
4:20 pm77 °FSunny.8 mph22%29.95 "Hg10 mi
Weather by CustomWeather, © 2017

See weather overviewHow to use our weather pages